<?xml version="1.0" encoding="UTF-8" standalone="no" ?>
<gpx xmlns="http://www.topografix.com/GPX/1/1" xmlns:xsi="http://www.w3.org/2001/XMLSchema-instance" xsi:schemaLocation="http://www.topografix.com/GPX/1/1 http://www.topografix.com/GPX/1/1/gpx.xsd" version="1.1" creator="VisuGPX - https://www.visugpx.com">
  <metadata>
    <name>Blis et Born 20km</name>
  </metadata>
  <trk>
    <name><![CDATA[Blis et Born 20km]]></name>
    <extensions>
      <line xmlns="http://www.topografix.com/GPX/gpx_style/0/2">
        <color>0000FF</color>
        <width>4</width>
      </line>
    </extensions>
    <trkseg>
      <trkpt lat="45.18181" lon="0.90789">
        <ele>210.6</ele>
      </trkpt>
      <trkpt lat="45.18188" lon="0.90761">
        <ele>210.5</ele>
      </trkpt>
      <trkpt lat="45.18149" lon="0.90747">
        <ele>207.5</ele>
        <time>2011-02-17T09:44:41Z</time>
      </trkpt>
      <trkpt lat="45.18132" lon="0.90745">
        <ele>207.9</ele>
        <time>2011-02-17T09:44:25Z</time>
      </trkpt>
      <trkpt lat="45.1811" lon="0.90753">
        <ele>208.3</ele>
        <time>2011-02-17T09:44:05Z</time>
      </trkpt>
      <trkpt lat="45.18093" lon="0.90762">
        <ele>208.5</ele>
        <time>2011-02-17T09:43:48Z</time>
      </trkpt>
      <trkpt lat="45.18074" lon="0.90768">
        <ele>208.6</ele>
        <time>2011-02-17T09:43:29Z</time>
      </trkpt>
      <trkpt lat="45.1807" lon="0.9079">
        <ele>208.3</ele>
        <time>2011-02-17T09:43:13Z</time>
      </trkpt>
      <trkpt lat="45.18074" lon="0.90962">
        <ele>201.1</ele>
        <time>2011-02-17T09:40:57Z</time>
      </trkpt>
      <trkpt lat="45.18087" lon="0.91016">
        <ele>205.2</ele>
        <time>2011-02-17T09:40:18Z</time>
      </trkpt>
      <trkpt lat="45.18086" lon="0.91079">
        <ele>208.1</ele>
        <time>2011-02-17T09:39:39Z</time>
      </trkpt>
      <trkpt lat="45.18071" lon="0.9111">
        <ele>207.8</ele>
        <time>2011-02-17T09:39:13Z</time>
      </trkpt>
      <trkpt lat="45.18056" lon="0.91166">
        <ele>209.8</ele>
        <time>2011-02-17T09:38:35Z</time>
      </trkpt>
      <trkpt lat="45.1806" lon="0.91223">
        <ele>212.3</ele>
        <time>2011-02-17T09:37:59Z</time>
      </trkpt>
      <trkpt lat="45.18067" lon="0.91264">
        <ele>213.3</ele>
        <time>2011-02-17T09:37:33Z</time>
      </trkpt>
      <trkpt lat="45.18078" lon="0.91385">
        <ele>214.5</ele>
        <time>2011-02-17T09:36:13Z</time>
      </trkpt>
      <trkpt lat="45.1809" lon="0.91493">
        <ele>215.5</ele>
        <time>2011-02-17T09:35:02Z</time>
      </trkpt>
      <trkpt lat="45.18109" lon="0.91534">
        <ele>216.5</ele>
        <time>2011-02-17T09:34:31Z</time>
      </trkpt>
      <trkpt lat="45.18123" lon="0.91536">
        <ele>217.5</ele>
        <time>2011-02-17T09:34:18Z</time>
      </trkpt>
      <trkpt lat="45.18137" lon="0.91518">
        <ele>218.9</ele>
        <time>2011-02-17T09:34:01Z</time>
      </trkpt>
      <trkpt lat="45.18156" lon="0.91497">
        <ele>219.6</ele>
        <time>2011-02-17T09:33:40Z</time>
      </trkpt>
      <trkpt lat="45.18171" lon="0.91459">
        <ele>220.6</ele>
        <time>2011-02-17T09:33:12Z</time>
      </trkpt>
      <trkpt lat="45.18192" lon="0.91516">
        <ele>220.5</ele>
        <time>2011-02-17T09:32:29Z</time>
      </trkpt>
      <trkpt lat="45.18217" lon="0.9155">
        <ele>222.6</ele>
        <time>2011-02-17T09:31:58Z</time>
      </trkpt>
      <trkpt lat="45.18274" lon="0.9163">
        <ele>229</ele>
        <time>2011-02-17T09:30:44Z</time>
      </trkpt>
      <trkpt lat="45.18295" lon="0.91666">
        <ele>230.6</ele>
        <time>2011-02-17T09:30:15Z</time>
      </trkpt>
      <trkpt lat="45.18302" lon="0.9171">
        <ele>232.4</ele>
        <time>2011-02-17T09:29:47Z</time>
      </trkpt>
      <trkpt lat="45.18333" lon="0.91751">
        <ele>234.7</ele>
        <time>2011-02-17T09:29:10Z</time>
      </trkpt>
      <trkpt lat="45.18419" lon="0.91827">
        <ele>238.2</ele>
      </trkpt>
      <trkpt lat="45.1842" lon="0.9189">
        <ele>231.4</ele>
        <time>2011-02-17T09:26:31Z</time>
      </trkpt>
      <trkpt lat="45.18445" lon="0.91951">
        <ele>227.2</ele>
        <time>2011-02-17T09:25:30Z</time>
      </trkpt>
      <trkpt lat="45.18452" lon="0.9194">
        <ele>227.5</ele>
        <time>2011-02-17T09:25:20Z</time>
      </trkpt>
      <trkpt lat="45.18481" lon="0.91919">
        <ele>226.9</ele>
        <time>2011-02-17T09:24:48Z</time>
      </trkpt>
      <trkpt lat="45.18582" lon="0.91782">
        <ele>237.6</ele>
      </trkpt>
      <trkpt lat="45.18631" lon="0.9181">
        <ele>221.7</ele>
        <time>2011-02-17T09:20:32Z</time>
      </trkpt>
      <trkpt lat="45.18706" lon="0.91878">
        <ele>208</ele>
        <time>2011-02-17T09:18:15Z</time>
      </trkpt>
      <trkpt lat="45.18747" lon="0.9195">
        <ele>202</ele>
        <time>2011-02-17T09:16:53Z</time>
      </trkpt>
      <trkpt lat="45.18825" lon="0.92004">
        <ele>199.5</ele>
        <time>2011-02-17T09:15:25Z</time>
      </trkpt>
      <trkpt lat="45.18874" lon="0.92084">
        <ele>199.3</ele>
        <time>2011-02-17T09:14:13Z</time>
      </trkpt>
      <trkpt lat="45.18935" lon="0.92169">
        <ele>197</ele>
        <time>2011-02-17T09:12:46Z</time>
      </trkpt>
      <trkpt lat="45.18965" lon="0.92185">
        <ele>195.4</ele>
        <time>2011-02-17T09:12:11Z</time>
      </trkpt>
      <trkpt lat="45.18995" lon="0.9223">
        <ele>194.3</ele>
        <time>2011-02-17T09:11:27Z</time>
      </trkpt>
      <trkpt lat="45.19044" lon="0.92226">
        <ele>190.7</ele>
        <time>2011-02-17T09:10:30Z</time>
      </trkpt>
      <trkpt lat="45.19121" lon="0.92146">
        <ele>186.4</ele>
        <time>2011-02-17T09:08:47Z</time>
      </trkpt>
      <trkpt lat="45.19125" lon="0.92141">
        <ele>186.1</ele>
        <time>2011-02-17T09:08:41Z</time>
      </trkpt>
      <trkpt lat="45.19128" lon="0.92136">
        <ele>186</ele>
        <time>2011-02-17T09:08:37Z</time>
      </trkpt>
      <trkpt lat="45.19072" lon="0.92092">
        <ele>186.4</ele>
        <time>2011-02-17T09:07:37Z</time>
      </trkpt>
      <trkpt lat="45.19033" lon="0.92046">
        <ele>183.7</ele>
        <time>2011-02-17T09:06:41Z</time>
      </trkpt>
      <trkpt lat="45.19023" lon="0.91968">
        <ele>184.4</ele>
        <time>2011-02-17T09:05:50Z</time>
      </trkpt>
      <trkpt lat="45.19043" lon="0.91913">
        <ele>195.7</ele>
      </trkpt>
      <trkpt lat="45.19042" lon="0.91837">
        <ele>191.1</ele>
        <time>2011-02-17T09:02:45Z</time>
      </trkpt>
      <trkpt lat="45.19012" lon="0.91807">
        <ele>194.5</ele>
        <time>2011-02-17T09:02:11Z</time>
      </trkpt>
      <trkpt lat="45.18953" lon="0.91783">
        <ele>199.6</ele>
        <time>2011-02-17T09:01:14Z</time>
      </trkpt>
      <trkpt lat="45.18923" lon="0.91733">
        <ele>202.6</ele>
        <time>2011-02-17T09:00:33Z</time>
      </trkpt>
      <trkpt lat="45.1888" lon="0.91514">
        <ele>221.1</ele>
        <time>2011-02-17T08:55:41Z</time>
      </trkpt>
      <trkpt lat="45.18861" lon="0.91422">
        <ele>225.8</ele>
        <time>2011-02-17T08:54:40Z</time>
      </trkpt>
      <trkpt lat="45.18839" lon="0.91316">
        <ele>227.8</ele>
        <time>2011-02-17T08:53:30Z</time>
      </trkpt>
      <trkpt lat="45.1876" lon="0.91197">
        <ele>225.3</ele>
        <time>2011-02-17T08:51:34Z</time>
      </trkpt>
      <trkpt lat="45.18722" lon="0.91157">
        <ele>224.1</ele>
        <time>2011-02-17T08:50:47Z</time>
      </trkpt>
      <trkpt lat="45.18708" lon="0.91122">
        <ele>223.8</ele>
        <time>2011-02-17T08:50:19Z</time>
      </trkpt>
      <trkpt lat="45.18697" lon="0.9108">
        <ele>224</ele>
        <time>2011-02-17T08:49:50Z</time>
      </trkpt>
      <trkpt lat="45.18672" lon="0.90999">
        <ele>225.7</ele>
        <time>2011-02-17T08:48:53Z</time>
      </trkpt>
      <trkpt lat="45.18728" lon="0.90939">
        <ele>225</ele>
        <time>2011-02-17T08:47:45Z</time>
      </trkpt>
      <trkpt lat="45.18784" lon="0.90891">
        <ele>229.5</ele>
      </trkpt>
      <trkpt lat="45.18813" lon="0.90841">
        <ele>224.3</ele>
      </trkpt>
      <trkpt lat="45.18819" lon="0.90924">
        <ele>224.4</ele>
      </trkpt>
      <trkpt lat="45.18863" lon="0.9089">
        <ele>223.8</ele>
        <time>2011-02-16T09:40:49Z</time>
      </trkpt>
      <trkpt lat="45.189" lon="0.90869">
        <ele>223.6</ele>
        <time>2011-02-16T09:40:11Z</time>
      </trkpt>
      <trkpt lat="45.18936" lon="0.9085">
        <ele>223</ele>
        <time>2011-02-16T09:39:33Z</time>
      </trkpt>
      <trkpt lat="45.18975" lon="0.90854">
        <ele>221.2</ele>
        <time>2011-02-16T09:38:51Z</time>
      </trkpt>
      <trkpt lat="45.19009" lon="0.90833">
        <ele>217.3</ele>
        <time>2011-02-16T09:38:02Z</time>
      </trkpt>
      <trkpt lat="45.19208" lon="0.9082">
        <ele>208.4</ele>
      </trkpt>
      <trkpt lat="45.19252" lon="0.90745">
        <ele>191.4</ele>
        <time>2011-02-16T09:31:33Z</time>
      </trkpt>
      <trkpt lat="45.19286" lon="0.90719">
        <ele>185.1</ele>
        <time>2011-02-16T09:30:32Z</time>
      </trkpt>
      <trkpt lat="45.19323" lon="0.9068">
        <ele>172.3</ele>
        <time>2011-02-16T09:28:35Z</time>
      </trkpt>
      <trkpt lat="45.19342" lon="0.90646">
        <ele>164.1</ele>
        <time>2011-02-16T09:27:20Z</time>
      </trkpt>
      <trkpt lat="45.19318" lon="0.90601">
        <ele>153.8</ele>
        <time>2011-02-16T09:25:46Z</time>
      </trkpt>
      <trkpt lat="45.1928" lon="0.90588">
        <ele>151.7</ele>
        <time>2011-02-16T09:25:03Z</time>
      </trkpt>
      <trkpt lat="45.19314" lon="0.90573">
        <ele>145.7</ele>
        <time>2011-02-16T09:24:05Z</time>
      </trkpt>
      <trkpt lat="45.19352" lon="0.90565">
        <ele>139.5</ele>
        <time>2011-02-16T09:23:05Z</time>
      </trkpt>
      <trkpt lat="45.19392" lon="0.90558">
        <ele>132.9</ele>
        <time>2011-02-16T09:22:01Z</time>
      </trkpt>
      <trkpt lat="45.19438" lon="0.90551">
        <ele>125</ele>
        <time>2011-02-16T09:20:45Z</time>
      </trkpt>
      <trkpt lat="45.19449" lon="0.90531">
        <ele>121.2</ele>
        <time>2011-02-16T09:20:09Z</time>
      </trkpt>
      <trkpt lat="45.19453" lon="0.90515">
        <ele>119.3</ele>
        <time>2011-02-16T09:19:51Z</time>
      </trkpt>
      <trkpt lat="45.19455" lon="0.90504">
        <ele>118</ele>
        <time>2011-02-16T09:19:38Z</time>
      </trkpt>
      <trkpt lat="45.19457" lon="0.90497">
        <ele>117.3</ele>
        <time>2011-02-16T09:19:31Z</time>
      </trkpt>
      <trkpt lat="45.19464" lon="0.9047">
        <ele>114.4</ele>
        <time>2011-02-16T09:19:00Z</time>
      </trkpt>
      <trkpt lat="45.19471" lon="0.90439">
        <ele>112.2</ele>
        <time>2011-02-16T09:18:31Z</time>
      </trkpt>
      <trkpt lat="45.19478" lon="0.90437">
        <ele>112</ele>
        <time>2011-02-16T09:18:24Z</time>
      </trkpt>
      <trkpt lat="45.19506" lon="0.90447">
        <ele>112</ele>
        <time>2011-02-16T09:17:56Z</time>
      </trkpt>
      <trkpt lat="45.19565" lon="0.90493">
        <ele>112.2</ele>
        <time>2011-02-16T09:16:52Z</time>
      </trkpt>
      <trkpt lat="45.19569" lon="0.90496">
        <ele>112.2</ele>
        <time>2011-02-16T09:16:48Z</time>
      </trkpt>
      <trkpt lat="45.19583" lon="0.90508">
        <ele>112.3</ele>
        <time>2011-02-16T09:16:33Z</time>
      </trkpt>
      <trkpt lat="45.19572" lon="0.90567">
        <ele>115.3</ele>
        <time>2011-02-16T09:15:54Z</time>
      </trkpt>
      <trkpt lat="45.1958" lon="0.90578">
        <ele>115.9</ele>
        <time>2011-02-16T09:15:44Z</time>
      </trkpt>
      <trkpt lat="45.19612" lon="0.90591">
        <ele>118.3</ele>
        <time>2011-02-16T09:15:15Z</time>
      </trkpt>
      <trkpt lat="45.197" lon="0.90628">
        <ele>120.6</ele>
        <time>2011-02-16T09:13:52Z</time>
      </trkpt>
      <trkpt lat="45.19778" lon="0.90656">
        <ele>121.7</ele>
        <time>2011-02-16T09:12:37Z</time>
      </trkpt>
      <trkpt lat="45.19801" lon="0.90652">
        <ele>120.6</ele>
        <time>2011-02-16T09:12:12Z</time>
      </trkpt>
      <trkpt lat="45.19812" lon="0.90643">
        <ele>119.5</ele>
        <time>2011-02-16T09:11:57Z</time>
      </trkpt>
      <trkpt lat="45.19818" lon="0.90637">
        <ele>118.7</ele>
        <time>2011-02-16T09:11:46Z</time>
      </trkpt>
      <trkpt lat="45.19868" lon="0.90627">
        <ele>120.2</ele>
        <time>2011-02-16T09:11:01Z</time>
      </trkpt>
      <trkpt lat="45.19988" lon="0.90593">
        <ele>120.5</ele>
        <time>2011-02-16T09:09:06Z</time>
      </trkpt>
      <trkpt lat="45.20033" lon="0.90568">
        <ele>120.4</ele>
        <time>2011-02-16T09:08:20Z</time>
      </trkpt>
      <trkpt lat="45.20054" lon="0.9054">
        <ele>120</ele>
        <time>2011-02-16T09:07:51Z</time>
      </trkpt>
      <trkpt lat="45.20083" lon="0.90484">
        <ele>117.6</ele>
        <time>2011-02-16T09:06:58Z</time>
      </trkpt>
      <trkpt lat="45.20156" lon="0.9043">
        <ele>118.2</ele>
        <time>2011-02-16T09:05:41Z</time>
      </trkpt>
      <trkpt lat="45.20191" lon="0.90391">
        <ele>118.8</ele>
        <time>2011-02-16T09:05:00Z</time>
      </trkpt>
      <trkpt lat="45.20224" lon="0.90352">
        <ele>119</ele>
        <time>2011-02-16T09:04:19Z</time>
      </trkpt>
      <trkpt lat="45.20266" lon="0.90334">
        <ele>120.4</ele>
        <time>2011-02-16T09:03:40Z</time>
      </trkpt>
      <trkpt lat="45.20328" lon="0.90334">
        <ele>123.2</ele>
        <time>2011-02-16T09:02:46Z</time>
      </trkpt>
      <trkpt lat="45.2038" lon="0.90315">
        <ele>122.3</ele>
        <time>2011-02-16T09:01:52Z</time>
      </trkpt>
      <trkpt lat="45.20402" lon="0.90315">
        <ele>121.7</ele>
        <time>2011-02-16T09:01:30Z</time>
      </trkpt>
      <trkpt lat="45.20446" lon="0.90345">
        <ele>123</ele>
        <time>2011-02-16T09:00:46Z</time>
      </trkpt>
      <trkpt lat="45.20501" lon="0.90352">
        <ele>126</ele>
        <time>2011-02-16T08:59:57Z</time>
      </trkpt>
      <trkpt lat="45.20562" lon="0.90351">
        <ele>125.2</ele>
        <time>2011-02-16T08:58:58Z</time>
      </trkpt>
      <trkpt lat="45.20584" lon="0.90363">
        <ele>125.4</ele>
        <time>2011-02-16T08:58:35Z</time>
      </trkpt>
      <trkpt lat="45.20643" lon="0.90355">
        <ele>123.4</ele>
        <time>2011-02-16T08:57:34Z</time>
      </trkpt>
      <trkpt lat="45.2065" lon="0.90341">
        <ele>122</ele>
        <time>2011-02-16T08:57:17Z</time>
      </trkpt>
      <trkpt lat="45.20666" lon="0.90273">
        <ele>117.5</ele>
        <time>2011-02-16T08:56:15Z</time>
      </trkpt>
      <trkpt lat="45.20679" lon="0.90244">
        <ele>116.4</ele>
        <time>2011-02-16T08:55:49Z</time>
      </trkpt>
      <trkpt lat="45.20701" lon="0.90225">
        <ele>115.6</ele>
        <time>2011-02-16T08:55:23Z</time>
      </trkpt>
      <trkpt lat="45.20728" lon="0.90217">
        <ele>115.3</ele>
        <time>2011-02-16T08:54:56Z</time>
      </trkpt>
      <trkpt lat="45.20783" lon="0.90218">
        <ele>115.6</ele>
        <time>2011-02-16T08:54:04Z</time>
      </trkpt>
      <trkpt lat="45.20824" lon="0.90253">
        <ele>118</ele>
        <time>2011-02-16T08:53:22Z</time>
      </trkpt>
      <trkpt lat="45.20844" lon="0.90267">
        <ele>118.6</ele>
        <time>2011-02-16T08:53:01Z</time>
      </trkpt>
      <trkpt lat="45.2088" lon="0.90273">
        <ele>118.3</ele>
        <time>2011-02-16T08:52:26Z</time>
      </trkpt>
      <trkpt lat="45.20911" lon="0.90252">
        <ele>116.8</ele>
        <time>2011-02-16T08:51:50Z</time>
      </trkpt>
      <trkpt lat="45.20925" lon="0.90221">
        <ele>115.8</ele>
        <time>2011-02-16T08:51:22Z</time>
      </trkpt>
      <trkpt lat="45.20929" lon="0.902">
        <ele>115</ele>
        <time>2011-02-16T08:51:06Z</time>
      </trkpt>
      <trkpt lat="45.2094" lon="0.90102">
        <ele>112.1</ele>
        <time>2011-02-16T08:49:51Z</time>
      </trkpt>
      <trkpt lat="45.20944" lon="0.90059">
        <ele>111.4</ele>
        <time>2011-02-16T08:49:20Z</time>
      </trkpt>
      <trkpt lat="45.20951" lon="0.90022">
        <ele>110.8</ele>
        <time>2011-02-16T08:48:53Z</time>
      </trkpt>
      <trkpt lat="45.20966" lon="0.8989">
        <ele>108</ele>
        <time>2011-02-16T08:47:17Z</time>
      </trkpt>
      <trkpt lat="45.20975" lon="0.89878">
        <ele>108</ele>
        <time>2011-02-16T08:47:05Z</time>
      </trkpt>
      <trkpt lat="45.2099" lon="0.8985">
        <ele>108</ele>
        <time>2011-02-16T08:46:42Z</time>
      </trkpt>
      <trkpt lat="45.21014" lon="0.89779">
        <ele>119</ele>
        <time>2011-02-16T08:45:18Z</time>
      </trkpt>
      <trkpt lat="45.20994" lon="0.89764">
        <ele>122.4</ele>
        <time>2011-02-16T08:44:49Z</time>
      </trkpt>
      <trkpt lat="45.20898" lon="0.89721">
        <ele>122.1</ele>
        <time>2011-02-16T08:43:12Z</time>
      </trkpt>
      <trkpt lat="45.2085" lon="0.897">
        <ele>115.9</ele>
        <time>2011-02-16T08:42:03Z</time>
      </trkpt>
      <trkpt lat="45.20853" lon="0.89655">
        <ele>118.4</ele>
        <time>2011-02-16T08:41:34Z</time>
      </trkpt>
      <trkpt lat="45.20855" lon="0.89635">
        <ele>117</ele>
        <time>2011-02-16T08:41:15Z</time>
      </trkpt>
      <trkpt lat="45.20873" lon="0.89563">
        <ele>118.3</ele>
        <time>2011-02-16T08:40:26Z</time>
      </trkpt>
      <trkpt lat="45.20878" lon="0.89543">
        <ele>119.2</ele>
        <time>2011-02-16T08:40:13Z</time>
      </trkpt>
      <trkpt lat="45.20888" lon="0.89525">
        <ele>118.6</ele>
        <time>2011-02-16T08:39:56Z</time>
      </trkpt>
      <trkpt lat="45.209" lon="0.8951">
        <ele>119.5</ele>
        <time>2011-02-16T08:39:42Z</time>
      </trkpt>
      <trkpt lat="45.20923" lon="0.89493">
        <ele>121.3</ele>
        <time>2011-02-16T08:39:19Z</time>
      </trkpt>
      <trkpt lat="45.20945" lon="0.89488">
        <ele>120.2</ele>
        <time>2011-02-16T08:38:54Z</time>
      </trkpt>
      <trkpt lat="45.20963" lon="0.8949">
        <ele>118.9</ele>
        <time>2011-02-16T08:38:34Z</time>
      </trkpt>
      <trkpt lat="45.20975" lon="0.89483">
        <ele>118.6</ele>
        <time>2011-02-16T08:38:20Z</time>
      </trkpt>
      <trkpt lat="45.20988" lon="0.89458">
        <ele>118.6</ele>
        <time>2011-02-16T08:37:59Z</time>
      </trkpt>
      <trkpt lat="45.20995" lon="0.89435">
        <ele>121.7</ele>
        <time>2011-02-16T08:37:35Z</time>
      </trkpt>
      <trkpt lat="45.21005" lon="0.89415">
        <ele>123</ele>
        <time>2011-02-16T08:37:19Z</time>
      </trkpt>
      <trkpt lat="45.21035" lon="0.8935">
        <ele>123.8</ele>
        <time>2011-02-16T08:36:28Z</time>
      </trkpt>
      <trkpt lat="45.21045" lon="0.89328">
        <ele>124.4</ele>
        <time>2011-02-16T08:36:12Z</time>
      </trkpt>
      <trkpt lat="45.21048" lon="0.89305">
        <ele>134.6</ele>
      </trkpt>
      <trkpt lat="45.2105" lon="0.89285">
        <ele>126.3</ele>
        <time>2011-02-16T08:35:42Z</time>
      </trkpt>
      <trkpt lat="45.21037" lon="0.89262">
        <ele>135.1</ele>
      </trkpt>
      <trkpt lat="45.21031" lon="0.89243">
        <ele>137.7</ele>
      </trkpt>
      <trkpt lat="45.21021" lon="0.89221">
        <ele>138.2</ele>
      </trkpt>
      <trkpt lat="45.21006" lon="0.89193">
        <ele>139.4</ele>
      </trkpt>
      <trkpt lat="45.21011" lon="0.89147">
        <ele>142.9</ele>
      </trkpt>
      <trkpt lat="45.2102" lon="0.89098">
        <ele>144.7</ele>
      </trkpt>
      <trkpt lat="45.2102" lon="0.89065">
        <ele>139.5</ele>
        <time>2011-02-16T08:33:08Z</time>
      </trkpt>
      <trkpt lat="45.21015" lon="0.89038">
        <ele>140.5</ele>
        <time>2011-02-16T08:32:50Z</time>
      </trkpt>
      <trkpt lat="45.20998" lon="0.89003">
        <ele>143.3</ele>
        <time>2011-02-16T08:32:22Z</time>
      </trkpt>
      <trkpt lat="45.20988" lon="0.89018">
        <ele>143.5</ele>
        <time>2011-02-16T08:32:08Z</time>
      </trkpt>
      <trkpt lat="45.20975" lon="0.89035">
        <ele>143.6</ele>
        <time>2011-02-16T08:31:52Z</time>
      </trkpt>
      <trkpt lat="45.2096" lon="0.8905">
        <ele>144.2</ele>
        <time>2011-02-16T08:31:35Z</time>
      </trkpt>
      <trkpt lat="45.20948" lon="0.89068">
        <ele>144.6</ele>
        <time>2011-02-16T08:31:19Z</time>
      </trkpt>
      <trkpt lat="45.20938" lon="0.89095">
        <ele>144.9</ele>
        <time>2011-02-16T08:30:59Z</time>
      </trkpt>
      <trkpt lat="45.2093" lon="0.89115">
        <ele>145.5</ele>
        <time>2011-02-16T08:30:45Z</time>
      </trkpt>
      <trkpt lat="45.20918" lon="0.8913">
        <ele>146.7</ele>
        <time>2011-02-16T08:30:30Z</time>
      </trkpt>
      <trkpt lat="45.20905" lon="0.89148">
        <ele>147.8</ele>
        <time>2011-02-16T08:30:14Z</time>
      </trkpt>
      <trkpt lat="45.20893" lon="0.8916">
        <ele>148.8</ele>
        <time>2011-02-16T08:30:01Z</time>
      </trkpt>
      <trkpt lat="45.2088" lon="0.8917">
        <ele>148.9</ele>
        <time>2011-02-16T08:29:47Z</time>
      </trkpt>
      <trkpt lat="45.20865" lon="0.8918">
        <ele>149.1</ele>
        <time>2011-02-16T08:29:32Z</time>
      </trkpt>
      <trkpt lat="45.20843" lon="0.89188">
        <ele>149.1</ele>
        <time>2011-02-16T08:29:10Z</time>
      </trkpt>
      <trkpt lat="45.20828" lon="0.89193">
        <ele>148.3</ele>
        <time>2011-02-16T08:28:53Z</time>
      </trkpt>
      <trkpt lat="45.2079" lon="0.89213">
        <ele>145.7</ele>
        <time>2011-02-16T08:28:07Z</time>
      </trkpt>
      <trkpt lat="45.2073" lon="0.89243">
        <ele>139.8</ele>
        <time>2011-02-16T08:26:48Z</time>
      </trkpt>
      <trkpt lat="45.20718" lon="0.8925">
        <ele>138.7</ele>
        <time>2011-02-16T08:26:32Z</time>
      </trkpt>
      <trkpt lat="45.20705" lon="0.8926">
        <ele>137.6</ele>
        <time>2011-02-16T08:26:15Z</time>
      </trkpt>
      <trkpt lat="45.207" lon="0.89265">
        <ele>137.3</ele>
        <time>2011-02-16T08:26:08Z</time>
      </trkpt>
      <trkpt lat="45.20698" lon="0.8927">
        <ele>137.2</ele>
        <time>2011-02-16T08:26:04Z</time>
      </trkpt>
      <trkpt lat="45.20694" lon="0.8926">
        <ele>136.5</ele>
        <time>2011-02-17T08:26:10Z</time>
      </trkpt>
      <trkpt lat="45.20692" lon="0.8923">
        <ele>135.3</ele>
        <time>2011-02-17T08:26:29Z</time>
      </trkpt>
      <trkpt lat="45.20687" lon="0.892">
        <ele>133.2</ele>
        <time>2011-02-17T08:26:49Z</time>
      </trkpt>
      <trkpt lat="45.20685" lon="0.8917">
        <ele>130.6</ele>
        <time>2011-02-17T08:27:14Z</time>
      </trkpt>
      <trkpt lat="45.20685" lon="0.89137">
        <ele>127.9</ele>
        <time>2011-02-17T08:27:38Z</time>
      </trkpt>
      <trkpt lat="45.20681" lon="0.89107">
        <ele>124.3</ele>
        <time>2011-02-17T08:28:08Z</time>
      </trkpt>
      <trkpt lat="45.20679" lon="0.89073">
        <ele>120</ele>
        <time>2011-02-17T08:28:42Z</time>
      </trkpt>
      <trkpt lat="45.20681" lon="0.89043">
        <ele>116.3</ele>
        <time>2011-02-17T08:29:12Z</time>
      </trkpt>
      <trkpt lat="45.2069" lon="0.89017">
        <ele>114.3</ele>
        <time>2011-02-17T08:29:32Z</time>
      </trkpt>
      <trkpt lat="45.20698" lon="0.88989">
        <ele>111</ele>
        <time>2011-02-17T08:30:00Z</time>
      </trkpt>
      <trkpt lat="45.20736" lon="0.88926">
        <ele>111.4</ele>
        <time>2011-02-17T08:30:56Z</time>
      </trkpt>
      <trkpt lat="45.20774" lon="0.8885">
        <ele>129</ele>
      </trkpt>
      <trkpt lat="45.20796" lon="0.88765">
        <ele>115.7</ele>
        <time>2011-02-17T08:33:09Z</time>
      </trkpt>
      <trkpt lat="45.20932" lon="0.8833">
        <ele>103.3</ele>
        <time>2011-02-17T08:38:08Z</time>
      </trkpt>
      <trkpt lat="45.20976" lon="0.88272">
        <ele>108.9</ele>
        <time>2011-02-17T08:39:23Z</time>
      </trkpt>
      <trkpt lat="45.20997" lon="0.88246">
        <ele>115.6</ele>
        <time>2011-02-17T08:40:25Z</time>
      </trkpt>
      <trkpt lat="45.20989" lon="0.88186">
        <ele>116.8</ele>
        <time>2011-02-17T08:41:08Z</time>
      </trkpt>
      <trkpt lat="45.20985" lon="0.88156">
        <ele>116</ele>
        <time>2011-02-17T08:41:28Z</time>
      </trkpt>
      <trkpt lat="45.20996" lon="0.8815">
        <ele>120.9</ele>
        <time>2011-02-17T08:42:12Z</time>
      </trkpt>
      <trkpt lat="45.21" lon="0.88135">
        <ele>122.9</ele>
        <time>2011-02-17T08:42:31Z</time>
      </trkpt>
      <trkpt lat="45.20999" lon="0.88132">
        <ele>122.6</ele>
        <time>2011-02-17T08:42:33Z</time>
      </trkpt>
      <trkpt lat="45.20994" lon="0.88111">
        <ele>119.7</ele>
        <time>2011-02-17T08:42:56Z</time>
      </trkpt>
      <trkpt lat="45.20986" lon="0.88103">
        <ele>116</ele>
      </trkpt>
      <trkpt lat="45.20988" lon="0.88088">
        <ele>115.8</ele>
        <time>2011-02-17T08:43:24Z</time>
      </trkpt>
      <trkpt lat="45.2098" lon="0.88066">
        <ele>115.1</ele>
      </trkpt>
      <trkpt lat="45.20989" lon="0.8804">
        <ele>114.1</ele>
      </trkpt>
      <trkpt lat="45.20997" lon="0.88018">
        <ele>113.2</ele>
        <time>2011-02-17T08:44:20Z</time>
      </trkpt>
      <trkpt lat="45.21001" lon="0.87992">
        <ele>111.7</ele>
        <time>2011-02-17T08:44:37Z</time>
      </trkpt>
      <trkpt lat="45.21005" lon="0.87968">
        <ele>111.5</ele>
        <time>2011-02-17T08:44:53Z</time>
      </trkpt>
      <trkpt lat="45.21017" lon="0.87929">
        <ele>112.4</ele>
        <time>2011-02-17T08:45:24Z</time>
      </trkpt>
      <trkpt lat="45.21017" lon="0.87901">
        <ele>111.8</ele>
        <time>2011-02-17T08:45:42Z</time>
      </trkpt>
      <trkpt lat="45.21022" lon="0.87872">
        <ele>124.9</ele>
      </trkpt>
      <trkpt lat="45.21033" lon="0.87832">
        <ele>123.5</ele>
      </trkpt>
      <trkpt lat="45.21024" lon="0.87704">
        <ele>121</ele>
      </trkpt>
      <trkpt lat="45.20995" lon="0.87592">
        <ele>109.8</ele>
      </trkpt>
      <trkpt lat="45.20979" lon="0.87584">
        <ele>106.8</ele>
        <time>2011-02-17T08:49:12Z</time>
      </trkpt>
      <trkpt lat="45.20971" lon="0.8756">
        <ele>106.6</ele>
        <time>2011-02-17T08:49:29Z</time>
      </trkpt>
      <trkpt lat="45.20964" lon="0.87534">
        <ele>106.7</ele>
        <time>2011-02-17T08:49:48Z</time>
      </trkpt>
      <trkpt lat="45.20958" lon="0.87509">
        <ele>106.9</ele>
        <time>2011-02-17T08:50:07Z</time>
      </trkpt>
      <trkpt lat="45.20949" lon="0.87481">
        <ele>106.7</ele>
        <time>2011-02-17T08:50:27Z</time>
      </trkpt>
      <trkpt lat="45.20943" lon="0.87454">
        <ele>106.5</ele>
        <time>2011-02-17T08:50:45Z</time>
      </trkpt>
      <trkpt lat="45.20941" lon="0.87425">
        <ele>106.7</ele>
        <time>2011-02-17T08:51:05Z</time>
      </trkpt>
      <trkpt lat="45.20938" lon="0.87389">
        <ele>107.7</ele>
        <time>2011-02-17T08:51:32Z</time>
      </trkpt>
      <trkpt lat="45.20938" lon="0.87354">
        <ele>109</ele>
        <time>2011-02-17T08:51:59Z</time>
      </trkpt>
      <trkpt lat="45.20941" lon="0.87326">
        <ele>110.7</ele>
        <time>2011-02-17T08:52:23Z</time>
      </trkpt>
      <trkpt lat="45.20943" lon="0.87301">
        <ele>112.5</ele>
        <time>2011-02-17T08:52:47Z</time>
      </trkpt>
      <trkpt lat="45.20943" lon="0.87275">
        <ele>114.9</ele>
        <time>2011-02-17T08:53:13Z</time>
      </trkpt>
      <trkpt lat="45.20945" lon="0.87249">
        <ele>117.9</ele>
        <time>2011-02-17T08:53:42Z</time>
      </trkpt>
      <trkpt lat="45.20949" lon="0.87217">
        <ele>121.3</ele>
        <time>2011-02-17T08:54:17Z</time>
      </trkpt>
      <trkpt lat="45.20951" lon="0.87185">
        <ele>123.5</ele>
        <time>2011-02-17T08:54:46Z</time>
      </trkpt>
      <trkpt lat="45.2095" lon="0.87162">
        <ele>124.7</ele>
        <time>2011-02-17T08:55:05Z</time>
      </trkpt>
      <trkpt lat="45.20942" lon="0.87137">
        <ele>125</ele>
        <time>2011-02-17T08:55:24Z</time>
      </trkpt>
      <trkpt lat="45.20932" lon="0.87099">
        <ele>125.8</ele>
        <time>2011-02-17T08:55:53Z</time>
      </trkpt>
      <trkpt lat="45.20923" lon="0.87065">
        <ele>128.1</ele>
        <time>2011-02-17T08:56:24Z</time>
      </trkpt>
      <trkpt lat="45.20914" lon="0.87039">
        <ele>130.9</ele>
        <time>2011-02-17T08:56:54Z</time>
      </trkpt>
      <trkpt lat="45.20903" lon="0.87009">
        <ele>136.6</ele>
        <time>2011-02-17T08:57:47Z</time>
      </trkpt>
      <trkpt lat="45.20893" lon="0.86986">
        <ele>140.5</ele>
        <time>2011-02-17T08:58:23Z</time>
      </trkpt>
      <trkpt lat="45.20882" lon="0.86956">
        <ele>143.7</ele>
        <time>2011-02-17T08:58:58Z</time>
      </trkpt>
      <trkpt lat="45.20869" lon="0.86922">
        <ele>146.4</ele>
        <time>2011-02-17T08:59:33Z</time>
      </trkpt>
      <trkpt lat="45.20852" lon="0.86885">
        <ele>150.9</ele>
        <time>2011-02-17T09:00:19Z</time>
      </trkpt>
      <trkpt lat="45.20836" lon="0.86863">
        <ele>152.3</ele>
        <time>2011-02-17T09:00:45Z</time>
      </trkpt>
      <trkpt lat="45.2082" lon="0.8684">
        <ele>154.8</ele>
        <time>2011-02-17T09:01:15Z</time>
      </trkpt>
      <trkpt lat="45.20784" lon="0.86803">
        <ele>155.4</ele>
        <time>2011-02-17T09:01:59Z</time>
      </trkpt>
      <trkpt lat="45.20726" lon="0.86773">
        <ele>154.8</ele>
        <time>2011-02-17T09:02:56Z</time>
      </trkpt>
      <trkpt lat="45.20716" lon="0.86758">
        <ele>157.9</ele>
        <time>2011-02-17T09:03:25Z</time>
      </trkpt>
      <trkpt lat="45.20698" lon="0.86741">
        <ele>160.6</ele>
        <time>2011-02-17T09:03:56Z</time>
      </trkpt>
      <trkpt lat="45.20677" lon="0.86723">
        <ele>162.4</ele>
        <time>2011-02-17T09:04:25Z</time>
      </trkpt>
      <trkpt lat="45.20666" lon="0.86708">
        <ele>165.8</ele>
        <time>2011-02-17T09:04:56Z</time>
      </trkpt>
      <trkpt lat="45.20653" lon="0.86693">
        <ele>168.9</ele>
        <time>2011-02-17T09:05:25Z</time>
      </trkpt>
      <trkpt lat="45.20634" lon="0.86672">
        <ele>173.5</ele>
        <time>2011-02-17T09:06:09Z</time>
      </trkpt>
      <trkpt lat="45.20617" lon="0.86665">
        <ele>174.5</ele>
        <time>2011-02-17T09:06:28Z</time>
      </trkpt>
      <trkpt lat="45.20602" lon="0.86654">
        <ele>176.1</ele>
        <time>2011-02-17T09:06:49Z</time>
      </trkpt>
      <trkpt lat="45.20583" lon="0.86649">
        <ele>176.1</ele>
        <time>2011-02-17T09:07:08Z</time>
      </trkpt>
      <trkpt lat="45.20563" lon="0.86635">
        <ele>178</ele>
        <time>2011-02-17T09:07:35Z</time>
      </trkpt>
      <trkpt lat="45.2055" lon="0.86625">
        <ele>178.9</ele>
        <time>2011-02-17T09:07:52Z</time>
      </trkpt>
      <trkpt lat="45.20535" lon="0.86617">
        <ele>180.5</ele>
        <time>2011-02-17T09:08:12Z</time>
      </trkpt>
      <trkpt lat="45.20516" lon="0.86622">
        <ele>180.6</ele>
        <time>2011-02-17T09:08:31Z</time>
      </trkpt>
      <trkpt lat="45.20496" lon="0.86619">
        <ele>182</ele>
        <time>2011-02-17T09:08:54Z</time>
      </trkpt>
      <trkpt lat="45.2048" lon="0.86621">
        <ele>182.6</ele>
        <time>2011-02-17T09:09:11Z</time>
      </trkpt>
      <trkpt lat="45.2046" lon="0.86616">
        <ele>185</ele>
        <time>2011-02-17T09:09:39Z</time>
      </trkpt>
      <trkpt lat="45.20436" lon="0.86613">
        <ele>185.9</ele>
        <time>2011-02-17T09:10:04Z</time>
      </trkpt>
      <trkpt lat="45.20413" lon="0.8661">
        <ele>186.1</ele>
        <time>2011-02-17T09:10:26Z</time>
      </trkpt>
      <trkpt lat="45.204" lon="0.86605">
        <ele>186.2</ele>
        <time>2011-02-17T09:10:39Z</time>
      </trkpt>
      <trkpt lat="45.20378" lon="0.86615">
        <ele>185.8</ele>
        <time>2011-02-17T09:11:00Z</time>
      </trkpt>
      <trkpt lat="45.20359" lon="0.86625">
        <ele>184.6</ele>
        <time>2011-02-17T09:11:18Z</time>
      </trkpt>
      <trkpt lat="45.20335" lon="0.86633">
        <ele>184.5</ele>
        <time>2011-02-17T09:11:41Z</time>
      </trkpt>
      <trkpt lat="45.20315" lon="0.8664">
        <ele>184.3</ele>
        <time>2011-02-17T09:12:00Z</time>
      </trkpt>
      <trkpt lat="45.20293" lon="0.86655">
        <ele>183.3</ele>
        <time>2011-02-17T09:12:22Z</time>
      </trkpt>
      <trkpt lat="45.20273" lon="0.86659">
        <ele>183.6</ele>
        <time>2011-02-17T09:12:42Z</time>
      </trkpt>
      <trkpt lat="45.20257" lon="0.86655">
        <ele>184.6</ele>
        <time>2011-02-17T09:13:00Z</time>
      </trkpt>
      <trkpt lat="45.20234" lon="0.86636">
        <ele>187.4</ele>
        <time>2011-02-17T09:13:35Z</time>
      </trkpt>
      <trkpt lat="45.20216" lon="0.86628">
        <ele>189.5</ele>
        <time>2011-02-17T09:14:00Z</time>
      </trkpt>
      <trkpt lat="45.20181" lon="0.86658">
        <ele>189.6</ele>
        <time>2011-02-17T09:14:40Z</time>
      </trkpt>
      <trkpt lat="45.20161" lon="0.86669">
        <ele>189.4</ele>
        <time>2011-02-17T09:14:59Z</time>
      </trkpt>
      <trkpt lat="45.20143" lon="0.8668">
        <ele>189.3</ele>
        <time>2011-02-17T09:15:18Z</time>
      </trkpt>
      <trkpt lat="45.20123" lon="0.86689">
        <ele>188.6</ele>
        <time>2011-02-17T09:15:37Z</time>
      </trkpt>
      <trkpt lat="45.20105" lon="0.86703">
        <ele>186.3</ele>
        <time>2011-02-17T09:15:57Z</time>
      </trkpt>
      <trkpt lat="45.20084" lon="0.8671">
        <ele>185.6</ele>
        <time>2011-02-17T09:16:16Z</time>
      </trkpt>
      <trkpt lat="45.20066" lon="0.86724">
        <ele>183.8</ele>
        <time>2011-02-17T09:16:35Z</time>
      </trkpt>
      <trkpt lat="45.20045" lon="0.86734">
        <ele>183.1</ele>
        <time>2011-02-17T09:16:56Z</time>
      </trkpt>
      <trkpt lat="45.20026" lon="0.8675">
        <ele>182.2</ele>
        <time>2011-02-17T09:17:15Z</time>
      </trkpt>
      <trkpt lat="45.20008" lon="0.8676">
        <ele>181.7</ele>
        <time>2011-02-17T09:17:33Z</time>
      </trkpt>
      <trkpt lat="45.1999" lon="0.86759">
        <ele>180.6</ele>
        <time>2011-02-17T09:17:48Z</time>
      </trkpt>
      <trkpt lat="45.19972" lon="0.86754">
        <ele>179.6</ele>
        <time>2011-02-17T09:18:05Z</time>
      </trkpt>
      <trkpt lat="45.19953" lon="0.86746">
        <ele>177.5</ele>
        <time>2011-02-17T09:18:24Z</time>
      </trkpt>
      <trkpt lat="45.19927" lon="0.86735">
        <ele>173.8</ele>
        <time>2011-02-17T09:18:57Z</time>
      </trkpt>
      <trkpt lat="45.19906" lon="0.86724">
        <ele>172.5</ele>
        <time>2011-02-17T09:19:17Z</time>
      </trkpt>
      <trkpt lat="45.19879" lon="0.86723">
        <ele>170</ele>
        <time>2011-02-17T09:19:42Z</time>
      </trkpt>
      <trkpt lat="45.19858" lon="0.86724">
        <ele>168.1</ele>
        <time>2011-02-17T09:20:02Z</time>
      </trkpt>
      <trkpt lat="45.19838" lon="0.8673">
        <ele>165.5</ele>
        <time>2011-02-17T09:20:26Z</time>
      </trkpt>
      <trkpt lat="45.19816" lon="0.86726">
        <ele>164.7</ele>
        <time>2011-02-17T09:20:45Z</time>
      </trkpt>
      <trkpt lat="45.19799" lon="0.86717">
        <ele>164.9</ele>
        <time>2011-02-17T09:21:03Z</time>
      </trkpt>
      <trkpt lat="45.19777" lon="0.86713">
        <ele>164.1</ele>
        <time>2011-02-17T09:21:23Z</time>
      </trkpt>
      <trkpt lat="45.19757" lon="0.86711">
        <ele>162.7</ele>
        <time>2011-02-17T09:21:41Z</time>
      </trkpt>
      <trkpt lat="45.19738" lon="0.86706">
        <ele>161.8</ele>
        <time>2011-02-17T09:21:58Z</time>
      </trkpt>
      <trkpt lat="45.19718" lon="0.86697">
        <ele>159.8</ele>
        <time>2011-02-17T09:22:18Z</time>
      </trkpt>
      <trkpt lat="45.197" lon="0.86684">
        <ele>158</ele>
        <time>2011-02-17T09:22:36Z</time>
      </trkpt>
      <trkpt lat="45.19678" lon="0.86662">
        <ele>156.1</ele>
        <time>2011-02-17T09:23:01Z</time>
      </trkpt>
      <trkpt lat="45.1966" lon="0.86639">
        <ele>155.3</ele>
        <time>2011-02-17T09:23:23Z</time>
      </trkpt>
      <trkpt lat="45.19637" lon="0.8663">
        <ele>153</ele>
        <time>2011-02-17T09:23:45Z</time>
      </trkpt>
      <trkpt lat="45.19621" lon="0.86627">
        <ele>151.3</ele>
        <time>2011-02-17T09:24:01Z</time>
      </trkpt>
      <trkpt lat="45.19608" lon="0.86633">
        <ele>149.7</ele>
        <time>2011-02-17T09:24:16Z</time>
      </trkpt>
      <trkpt lat="45.19591" lon="0.86657">
        <ele>147</ele>
        <time>2011-02-17T09:24:40Z</time>
      </trkpt>
      <trkpt lat="45.19574" lon="0.86683">
        <ele>145.1</ele>
        <time>2011-02-17T09:25:03Z</time>
      </trkpt>
      <trkpt lat="45.19557" lon="0.867">
        <ele>143.9</ele>
        <time>2011-02-17T09:25:21Z</time>
      </trkpt>
      <trkpt lat="45.19539" lon="0.86715">
        <ele>142.1</ele>
        <time>2011-02-17T09:25:40Z</time>
      </trkpt>
      <trkpt lat="45.19492" lon="0.86775">
        <ele>137.7</ele>
        <time>2011-02-17T09:26:38Z</time>
      </trkpt>
      <trkpt lat="45.19477" lon="0.8679">
        <ele>136.8</ele>
        <time>2011-02-17T09:26:54Z</time>
      </trkpt>
      <trkpt lat="45.1946" lon="0.86805">
        <ele>135.8</ele>
        <time>2011-02-17T09:27:12Z</time>
      </trkpt>
      <trkpt lat="45.19436" lon="0.86816">
        <ele>134</ele>
        <time>2011-02-17T09:27:34Z</time>
      </trkpt>
      <trkpt lat="45.19417" lon="0.8682">
        <ele>132.4</ele>
        <time>2011-02-17T09:27:52Z</time>
      </trkpt>
      <trkpt lat="45.19398" lon="0.86826">
        <ele>130.2</ele>
        <time>2011-02-17T09:28:13Z</time>
      </trkpt>
      <trkpt lat="45.19376" lon="0.86831">
        <ele>127.8</ele>
        <time>2011-02-17T09:28:34Z</time>
      </trkpt>
      <trkpt lat="45.19355" lon="0.86835">
        <ele>125.9</ele>
        <time>2011-02-17T09:28:54Z</time>
      </trkpt>
      <trkpt lat="45.19333" lon="0.86841">
        <ele>124.1</ele>
        <time>2011-02-17T09:29:15Z</time>
      </trkpt>
      <trkpt lat="45.19304" lon="0.86843">
        <ele>121.9</ele>
        <time>2011-02-17T09:29:41Z</time>
      </trkpt>
      <trkpt lat="45.1928" lon="0.86846">
        <ele>120.1</ele>
        <time>2011-02-17T09:30:03Z</time>
      </trkpt>
      <trkpt lat="45.1926" lon="0.8685">
        <ele>118.5</ele>
        <time>2011-02-17T09:30:21Z</time>
      </trkpt>
      <trkpt lat="45.19241" lon="0.86856">
        <ele>116.7</ele>
        <time>2011-02-17T09:30:40Z</time>
      </trkpt>
      <trkpt lat="45.19222" lon="0.86869">
        <ele>114.6</ele>
        <time>2011-02-17T09:31:00Z</time>
      </trkpt>
      <trkpt lat="45.19203" lon="0.8688">
        <ele>112.8</ele>
        <time>2011-02-17T09:31:20Z</time>
      </trkpt>
      <trkpt lat="45.19183" lon="0.86893">
        <ele>111.1</ele>
        <time>2011-02-17T09:31:39Z</time>
      </trkpt>
      <trkpt lat="45.1916" lon="0.86906">
        <ele>109.1</ele>
        <time>2011-02-17T09:32:02Z</time>
      </trkpt>
      <trkpt lat="45.19138" lon="0.86921">
        <ele>107.6</ele>
        <time>2011-02-17T09:32:23Z</time>
      </trkpt>
      <trkpt lat="45.19121" lon="0.86929">
        <ele>106.6</ele>
        <time>2011-02-17T09:32:39Z</time>
      </trkpt>
      <trkpt lat="45.19106" lon="0.8694">
        <ele>105.7</ele>
        <time>2011-02-17T09:32:54Z</time>
      </trkpt>
      <trkpt lat="45.19089" lon="0.86953">
        <ele>104.8</ele>
        <time>2011-02-17T09:33:11Z</time>
      </trkpt>
      <trkpt lat="45.19067" lon="0.86966">
        <ele>104</ele>
        <time>2011-02-17T09:33:32Z</time>
      </trkpt>
      <trkpt lat="45.19044" lon="0.86979">
        <ele>103.2</ele>
        <time>2011-02-17T09:33:55Z</time>
      </trkpt>
      <trkpt lat="45.19024" lon="0.86989">
        <ele>102.7</ele>
        <time>2011-02-17T09:34:13Z</time>
      </trkpt>
      <trkpt lat="45.19005" lon="0.87">
        <ele>102.3</ele>
        <time>2011-02-17T09:34:32Z</time>
      </trkpt>
      <trkpt lat="45.18988" lon="0.87009">
        <ele>102.1</ele>
        <time>2011-02-17T09:34:49Z</time>
      </trkpt>
      <trkpt lat="45.18969" lon="0.87019">
        <ele>102</ele>
        <time>2011-02-17T09:35:09Z</time>
      </trkpt>
      <trkpt lat="45.18951" lon="0.8703">
        <ele>102</ele>
        <time>2011-02-17T09:35:27Z</time>
      </trkpt>
      <trkpt lat="45.18934" lon="0.87041">
        <ele>101.9</ele>
        <time>2011-02-17T09:35:44Z</time>
      </trkpt>
      <trkpt lat="45.18911" lon="0.87054">
        <ele>101.4</ele>
        <time>2011-02-17T09:36:07Z</time>
      </trkpt>
      <trkpt lat="45.18903" lon="0.87059">
        <ele>101.2</ele>
        <time>2011-02-17T09:36:15Z</time>
      </trkpt>
      <trkpt lat="45.1892" lon="0.871">
        <ele>101</ele>
        <time>2011-02-17T09:36:46Z</time>
      </trkpt>
      <trkpt lat="45.1893" lon="0.87129">
        <ele>100.5</ele>
        <time>2011-02-17T09:37:07Z</time>
      </trkpt>
      <trkpt lat="45.18941" lon="0.87161">
        <ele>100</ele>
        <time>2011-02-17T09:37:30Z</time>
      </trkpt>
      <trkpt lat="45.18949" lon="0.87184">
        <ele>99.8</ele>
        <time>2011-02-17T09:37:46Z</time>
      </trkpt>
      <trkpt lat="45.18955" lon="0.8721">
        <ele>99.6</ele>
        <time>2011-02-17T09:38:04Z</time>
      </trkpt>
      <trkpt lat="45.18962" lon="0.87239">
        <ele>99.4</ele>
        <time>2011-02-17T09:38:24Z</time>
      </trkpt>
      <trkpt lat="45.18974" lon="0.87266">
        <ele>99.2</ele>
        <time>2011-02-17T09:38:46Z</time>
      </trkpt>
      <trkpt lat="45.18983" lon="0.87284">
        <ele>99.1</ele>
        <time>2011-02-17T09:39:01Z</time>
      </trkpt>
      <trkpt lat="45.18988" lon="0.87297">
        <ele>99.2</ele>
        <time>2011-02-17T09:39:11Z</time>
      </trkpt>
      <trkpt lat="45.18971" lon="0.87319">
        <ele>98.8</ele>
        <time>2011-02-17T09:39:32Z</time>
      </trkpt>
      <trkpt lat="45.18982" lon="0.87339">
        <ele>99</ele>
        <time>2011-02-17T09:39:50Z</time>
      </trkpt>
      <trkpt lat="45.18997" lon="0.87363">
        <ele>99.1</ele>
        <time>2011-02-17T09:40:12Z</time>
      </trkpt>
      <trkpt lat="45.19007" lon="0.87382">
        <ele>99.1</ele>
        <time>2011-02-17T09:40:28Z</time>
      </trkpt>
      <trkpt lat="45.19018" lon="0.87408">
        <ele>98.9</ele>
        <time>2011-02-17T09:40:47Z</time>
      </trkpt>
      <trkpt lat="45.19033" lon="0.87429">
        <ele>99.1</ele>
        <time>2011-02-17T09:41:08Z</time>
      </trkpt>
      <trkpt lat="45.19049" lon="0.87455">
        <ele>99.5</ele>
        <time>2011-02-17T09:41:33Z</time>
      </trkpt>
      <trkpt lat="45.19067" lon="0.8748">
        <ele>99.8</ele>
        <time>2011-02-17T09:41:57Z</time>
      </trkpt>
      <trkpt lat="45.19084" lon="0.87506">
        <ele>99.8</ele>
        <time>2011-02-17T09:42:21Z</time>
      </trkpt>
      <trkpt lat="45.19103" lon="0.87529">
        <ele>99.8</ele>
        <time>2011-02-17T09:42:45Z</time>
      </trkpt>
      <trkpt lat="45.19119" lon="0.87553">
        <ele>99.6</ele>
        <time>2011-02-17T09:43:06Z</time>
      </trkpt>
      <trkpt lat="45.19136" lon="0.87576">
        <ele>99.2</ele>
        <time>2011-02-17T09:43:28Z</time>
      </trkpt>
      <trkpt lat="45.19151" lon="0.87592">
        <ele>99</ele>
        <time>2011-02-17T09:43:45Z</time>
      </trkpt>
      <trkpt lat="45.19168" lon="0.87612">
        <ele>98.7</ele>
        <time>2011-02-17T09:44:06Z</time>
      </trkpt>
      <trkpt lat="45.19187" lon="0.87601">
        <ele>99</ele>
        <time>2011-02-17T09:44:26Z</time>
      </trkpt>
      <trkpt lat="45.19203" lon="0.8759">
        <ele>99.2</ele>
        <time>2011-02-17T09:44:42Z</time>
      </trkpt>
      <trkpt lat="45.19222" lon="0.8758">
        <ele>99.3</ele>
        <time>2011-02-17T09:45:02Z</time>
      </trkpt>
      <trkpt lat="45.19239" lon="0.87565">
        <ele>99.5</ele>
        <time>2011-02-17T09:45:22Z</time>
      </trkpt>
      <trkpt lat="45.19256" lon="0.87556">
        <ele>99.7</ele>
        <time>2011-02-17T09:45:40Z</time>
      </trkpt>
      <trkpt lat="45.19273" lon="0.87543">
        <ele>99.9</ele>
        <time>2011-02-17T09:45:59Z</time>
      </trkpt>
      <trkpt lat="45.19293" lon="0.87534">
        <ele>100</ele>
        <time>2011-02-17T09:46:18Z</time>
      </trkpt>
      <trkpt lat="45.19318" lon="0.87522">
        <ele>100.2</ele>
        <time>2011-02-17T09:46:44Z</time>
      </trkpt>
      <trkpt lat="45.19333" lon="0.87513">
        <ele>100.3</ele>
        <time>2011-02-17T09:47:00Z</time>
      </trkpt>
      <trkpt lat="45.19348" lon="0.87502">
        <ele>100.4</ele>
        <time>2011-02-17T09:47:16Z</time>
      </trkpt>
      <trkpt lat="45.19363" lon="0.87522">
        <ele>99.8</ele>
        <time>2011-02-17T09:47:35Z</time>
      </trkpt>
      <trkpt lat="45.19378" lon="0.87545">
        <ele>99</ele>
        <time>2011-02-17T09:47:54Z</time>
      </trkpt>
      <trkpt lat="45.19393" lon="0.87571">
        <ele>98.3</ele>
        <time>2011-02-17T09:48:16Z</time>
      </trkpt>
      <trkpt lat="45.19409" lon="0.87599">
        <ele>97.5</ele>
        <time>2011-02-17T09:48:38Z</time>
      </trkpt>
      <trkpt lat="45.19421" lon="0.8762">
        <ele>96.9</ele>
        <time>2011-02-17T09:48:55Z</time>
      </trkpt>
      <trkpt lat="45.19432" lon="0.87644">
        <ele>96.3</ele>
        <time>2011-02-17T09:49:13Z</time>
      </trkpt>
      <trkpt lat="45.19449" lon="0.8767">
        <ele>95.9</ele>
        <time>2011-02-17T09:49:36Z</time>
      </trkpt>
      <trkpt lat="45.19462" lon="0.87698">
        <ele>95.6</ele>
        <time>2011-02-17T09:49:58Z</time>
      </trkpt>
      <trkpt lat="45.19471" lon="0.87734">
        <ele>95.2</ele>
        <time>2011-02-17T09:50:23Z</time>
      </trkpt>
      <trkpt lat="45.19475" lon="0.8776">
        <ele>95.1</ele>
        <time>2011-02-17T09:50:41Z</time>
      </trkpt>
      <trkpt lat="45.19475" lon="0.87786">
        <ele>95</ele>
        <time>2011-02-17T09:50:58Z</time>
      </trkpt>
      <trkpt lat="45.19475" lon="0.8782">
        <ele>95.5</ele>
        <time>2011-02-17T09:51:22Z</time>
      </trkpt>
      <trkpt lat="45.19475" lon="0.87852">
        <ele>96</ele>
        <time>2011-02-17T09:51:45Z</time>
      </trkpt>
      <trkpt lat="45.19473" lon="0.87882">
        <ele>96.9</ele>
        <time>2011-02-17T09:52:07Z</time>
      </trkpt>
      <trkpt lat="45.19473" lon="0.87912">
        <ele>97.9</ele>
        <time>2011-02-17T09:52:30Z</time>
      </trkpt>
      <trkpt lat="45.19473" lon="0.87944">
        <ele>100</ele>
        <time>2011-02-17T09:52:59Z</time>
      </trkpt>
      <trkpt lat="45.19477" lon="0.87972">
        <ele>101.9</ele>
        <time>2011-02-17T09:53:24Z</time>
      </trkpt>
      <trkpt lat="45.19492" lon="0.87992">
        <ele>103.9</ele>
        <time>2011-02-17T09:53:50Z</time>
      </trkpt>
      <trkpt lat="45.19514" lon="0.87998">
        <ele>105</ele>
        <time>2011-02-17T09:54:14Z</time>
      </trkpt>
      <trkpt lat="45.19537" lon="0.88002">
        <ele>106.1</ele>
        <time>2011-02-17T09:54:39Z</time>
      </trkpt>
      <trkpt lat="45.19545" lon="0.88004">
        <ele>111.7</ele>
      </trkpt>
      <trkpt lat="45.19529" lon="0.88009">
        <ele>106.4</ele>
        <time>2011-02-17T09:55:18Z</time>
      </trkpt>
      <trkpt lat="45.19503" lon="0.88013">
        <ele>106.2</ele>
        <time>2011-02-17T09:55:42Z</time>
      </trkpt>
      <trkpt lat="45.19479" lon="0.88019">
        <ele>106.2</ele>
        <time>2011-02-17T09:56:05Z</time>
      </trkpt>
      <trkpt lat="45.19451" lon="0.88024">
        <ele>106.1</ele>
        <time>2011-02-17T09:56:31Z</time>
      </trkpt>
      <trkpt lat="45.19432" lon="0.88028">
        <ele>106</ele>
        <time>2011-02-17T09:56:50Z</time>
      </trkpt>
      <trkpt lat="45.19413" lon="0.88032">
        <ele>105.9</ele>
        <time>2011-02-17T09:57:08Z</time>
      </trkpt>
      <trkpt lat="45.19393" lon="0.88034">
        <ele>105.6</ele>
        <time>2011-02-17T09:57:26Z</time>
      </trkpt>
      <trkpt lat="45.19374" lon="0.88039">
        <ele>105.9</ele>
        <time>2011-02-17T09:57:45Z</time>
      </trkpt>
      <trkpt lat="45.19357" lon="0.88043">
        <ele>106.2</ele>
        <time>2011-02-17T09:58:02Z</time>
      </trkpt>
      <trkpt lat="45.1934" lon="0.88045">
        <ele>105.9</ele>
        <time>2011-02-17T09:58:18Z</time>
      </trkpt>
      <trkpt lat="45.19314" lon="0.88052">
        <ele>105.5</ele>
        <time>2011-02-17T09:58:42Z</time>
      </trkpt>
      <trkpt lat="45.19297" lon="0.88054">
        <ele>105.3</ele>
        <time>2011-02-17T09:58:58Z</time>
      </trkpt>
      <trkpt lat="45.19273" lon="0.88063">
        <ele>106.3</ele>
        <time>2011-02-17T09:59:24Z</time>
      </trkpt>
      <trkpt lat="45.19301" lon="0.88103">
        <ele>111.7</ele>
        <time>2011-02-17T10:00:21Z</time>
      </trkpt>
      <trkpt lat="45.19329" lon="0.88125">
        <ele>113.4</ele>
        <time>2011-02-17T10:00:57Z</time>
      </trkpt>
      <trkpt lat="45.19345" lon="0.88152">
        <ele>115.1</ele>
        <time>2011-02-17T10:01:25Z</time>
      </trkpt>
      <trkpt lat="45.19357" lon="0.88176">
        <ele>116.8</ele>
        <time>2011-02-17T10:01:50Z</time>
      </trkpt>
      <trkpt lat="45.19368" lon="0.88196">
        <ele>118.9</ele>
        <time>2011-02-17T10:02:14Z</time>
      </trkpt>
      <trkpt lat="45.19384" lon="0.88206">
        <ele>119.8</ele>
        <time>2011-02-17T10:02:33Z</time>
      </trkpt>
      <trkpt lat="45.19402" lon="0.88217">
        <ele>121</ele>
        <time>2011-02-17T10:02:56Z</time>
      </trkpt>
      <trkpt lat="45.19414" lon="0.88226">
        <ele>122.7</ele>
        <time>2011-02-17T10:03:14Z</time>
      </trkpt>
      <trkpt lat="45.19433" lon="0.88249">
        <ele>126.3</ele>
        <time>2011-02-17T10:03:52Z</time>
      </trkpt>
      <trkpt lat="45.19446" lon="0.88264">
        <ele>128.3</ele>
        <time>2011-02-17T10:04:15Z</time>
      </trkpt>
      <trkpt lat="45.19454" lon="0.88285">
        <ele>130.1</ele>
        <time>2011-02-17T10:04:37Z</time>
      </trkpt>
      <trkpt lat="45.19366" lon="0.88371">
        <ele>141.3</ele>
      </trkpt>
      <trkpt lat="45.19239" lon="0.88489">
        <ele>159.7</ele>
      </trkpt>
      <trkpt lat="45.19189" lon="0.8859">
        <ele>158.6</ele>
      </trkpt>
      <trkpt lat="45.19137" lon="0.88665">
        <ele>161.2</ele>
      </trkpt>
      <trkpt lat="45.19075" lon="0.88704">
        <ele>161.3</ele>
      </trkpt>
      <trkpt lat="45.18989" lon="0.88803">
        <ele>164.7</ele>
      </trkpt>
      <trkpt lat="45.18956" lon="0.88891">
        <ele>167.8</ele>
      </trkpt>
      <trkpt lat="45.18974" lon="0.88914">
        <ele>165.6</ele>
      </trkpt>
      <trkpt lat="45.19015" lon="0.88903">
        <ele>156.7</ele>
      </trkpt>
      <trkpt lat="45.19045" lon="0.8888">
        <ele>150.6</ele>
      </trkpt>
      <trkpt lat="45.19063" lon="0.88888">
        <ele>144.3</ele>
      </trkpt>
      <trkpt lat="45.19109" lon="0.88867">
        <ele>127.7</ele>
      </trkpt>
      <trkpt lat="45.19134" lon="0.88854">
        <ele>118.5</ele>
      </trkpt>
      <trkpt lat="45.1925" lon="0.8874">
        <ele>111.1</ele>
      </trkpt>
      <trkpt lat="45.19134" lon="0.88892">
        <ele>112</ele>
        <time>2011-02-16T10:10:41Z</time>
      </trkpt>
      <trkpt lat="45.1904" lon="0.8906">
        <ele>110.8</ele>
        <time>2011-02-16T10:08:13Z</time>
      </trkpt>
      <trkpt lat="45.1901" lon="0.89106">
        <ele>125</ele>
      </trkpt>
      <trkpt lat="45.18968" lon="0.89215">
        <ele>136.9</ele>
      </trkpt>
      <trkpt lat="45.18911" lon="0.89397">
        <ele>147.4</ele>
      </trkpt>
      <trkpt lat="45.18852" lon="0.89436">
        <ele>159.3</ele>
      </trkpt>
      <trkpt lat="45.18825" lon="0.89467">
        <ele>180.8</ele>
      </trkpt>
      <trkpt lat="45.18874" lon="0.89579">
        <ele>158.2</ele>
      </trkpt>
      <trkpt lat="45.1881" lon="0.89709">
        <ele>165</ele>
        <time>2011-02-16T09:58:06Z</time>
      </trkpt>
      <trkpt lat="45.18799" lon="0.89767">
        <ele>173.8</ele>
        <time>2011-02-16T09:57:01Z</time>
      </trkpt>
      <trkpt lat="45.18777" lon="0.89995">
        <ele>199.1</ele>
        <time>2011-02-16T09:53:24Z</time>
      </trkpt>
      <trkpt lat="45.18776" lon="0.90005">
        <ele>200</ele>
        <time>2011-02-16T09:53:15Z</time>
      </trkpt>
      <trkpt lat="45.18817" lon="0.9007">
        <ele>213.9</ele>
      </trkpt>
      <trkpt lat="45.18856" lon="0.90212">
        <ele>213.5</ele>
        <time>2011-02-16T09:50:27Z</time>
      </trkpt>
      <trkpt lat="45.18842" lon="0.90344">
        <ele>224</ele>
        <time>2011-02-16T09:48:46Z</time>
      </trkpt>
      <trkpt lat="45.18842" lon="0.9035">
        <ele>224</ele>
        <time>2011-02-17T08:39:54Z</time>
      </trkpt>
      <trkpt lat="45.18808" lon="0.90283">
        <ele>226.1</ele>
      </trkpt>
      <trkpt lat="45.18739" lon="0.90199">
        <ele>221.5</ele>
      </trkpt>
      <trkpt lat="45.1867" lon="0.9006">
        <ele>201.7</ele>
        <time>2011-02-17T08:34:28Z</time>
      </trkpt>
      <trkpt lat="45.18669" lon="0.90046">
        <ele>201.1</ele>
        <time>2011-02-17T08:34:18Z</time>
      </trkpt>
      <trkpt lat="45.18651" lon="0.89921">
        <ele>198.1</ele>
        <time>2011-02-17T08:32:44Z</time>
      </trkpt>
      <trkpt lat="45.18633" lon="0.89854">
        <ele>198.5</ele>
        <time>2011-02-17T08:31:57Z</time>
      </trkpt>
      <trkpt lat="45.18628" lon="0.89673">
        <ele>202.2</ele>
      </trkpt>
      <trkpt lat="45.1868" lon="0.89474">
        <ele>207.6</ele>
      </trkpt>
      <trkpt lat="45.18702" lon="0.89415">
        <ele>208.6</ele>
      </trkpt>
      <trkpt lat="45.18727" lon="0.89316">
        <ele>208.4</ele>
      </trkpt>
      <trkpt lat="45.18687" lon="0.89364">
        <ele>205.2</ele>
        <time>2011-02-17T08:25:36Z</time>
      </trkpt>
      <trkpt lat="45.18632" lon="0.89391">
        <ele>206.9</ele>
        <time>2011-02-17T08:24:44Z</time>
      </trkpt>
      <trkpt lat="45.18597" lon="0.89414">
        <ele>207.3</ele>
        <time>2011-02-17T08:24:08Z</time>
      </trkpt>
      <trkpt lat="45.18527" lon="0.89477">
        <ele>206</ele>
        <time>2011-02-17T08:22:47Z</time>
      </trkpt>
      <trkpt lat="45.18456" lon="0.89501">
        <ele>208</ele>
        <time>2011-02-17T08:21:41Z</time>
      </trkpt>
      <trkpt lat="45.18443" lon="0.89492">
        <ele>209.6</ele>
        <time>2011-02-17T08:21:27Z</time>
      </trkpt>
      <trkpt lat="45.18427" lon="0.89477">
        <ele>211.9</ele>
        <time>2011-02-17T08:21:05Z</time>
      </trkpt>
      <trkpt lat="45.18395" lon="0.89459">
        <ele>215.1</ele>
        <time>2011-02-17T08:20:32Z</time>
      </trkpt>
      <trkpt lat="45.18385" lon="0.89465">
        <ele>215.6</ele>
        <time>2011-02-17T08:20:23Z</time>
      </trkpt>
      <trkpt lat="45.18363" lon="0.89499">
        <ele>215.2</ele>
        <time>2011-02-17T08:19:50Z</time>
      </trkpt>
      <trkpt lat="45.18351" lon="0.89519">
        <ele>215.2</ele>
        <time>2011-02-17T08:19:33Z</time>
      </trkpt>
      <trkpt lat="45.18325" lon="0.89572">
        <ele>214.1</ele>
        <time>2011-02-17T08:18:47Z</time>
      </trkpt>
      <trkpt lat="45.18323" lon="0.89589">
        <ele>213.5</ele>
        <time>2011-02-17T08:18:34Z</time>
      </trkpt>
      <trkpt lat="45.18323" lon="0.89707">
        <ele>209.5</ele>
        <time>2011-02-17T08:17:04Z</time>
      </trkpt>
      <trkpt lat="45.18329" lon="0.8972">
        <ele>209.6</ele>
        <time>2011-02-17T08:16:54Z</time>
      </trkpt>
      <trkpt lat="45.18346" lon="0.89753">
        <ele>217.5</ele>
      </trkpt>
      <trkpt lat="45.18329" lon="0.89774">
        <ele>214.5</ele>
      </trkpt>
      <trkpt lat="45.18299" lon="0.89864">
        <ele>203.7</ele>
      </trkpt>
      <trkpt lat="45.18338" lon="0.89979">
        <ele>199.6</ele>
      </trkpt>
      <trkpt lat="45.18373" lon="0.90108">
        <ele>187.8</ele>
      </trkpt>
      <trkpt lat="45.18417" lon="0.90261">
        <ele>171.9</ele>
        <time>2011-02-17T08:08:23Z</time>
      </trkpt>
      <trkpt lat="45.18417" lon="0.90285">
        <ele>169.7</ele>
        <time>2011-02-17T08:07:59Z</time>
      </trkpt>
      <trkpt lat="45.18422" lon="0.90345">
        <ele>172</ele>
        <time>2011-02-17T08:07:22Z</time>
      </trkpt>
      <trkpt lat="45.18393" lon="0.90381">
        <ele>178.9</ele>
        <time>2011-02-17T08:06:26Z</time>
      </trkpt>
      <trkpt lat="45.18401" lon="0.90416">
        <ele>182</ele>
        <time>2011-02-17T08:05:58Z</time>
      </trkpt>
      <trkpt lat="45.18393" lon="0.90456">
        <ele>183.8</ele>
        <time>2011-02-17T08:05:32Z</time>
      </trkpt>
      <trkpt lat="45.18367" lon="0.90487">
        <ele>187.8</ele>
        <time>2011-02-17T08:04:54Z</time>
      </trkpt>
      <trkpt lat="45.18299" lon="0.90556">
        <ele>195.1</ele>
        <time>2011-02-17T08:03:36Z</time>
      </trkpt>
      <trkpt lat="45.18278" lon="0.90601">
        <ele>196</ele>
        <time>2011-02-17T08:03:02Z</time>
      </trkpt>
      <trkpt lat="45.18258" lon="0.90679">
        <ele>199.3</ele>
        <time>2011-02-17T08:02:10Z</time>
      </trkpt>
      <trkpt lat="45.18259" lon="0.90778">
        <ele>210</ele>
      </trkpt>
      <trkpt lat="45.18218" lon="0.90773">
        <ele>210</ele>
      </trkpt>
      <trkpt lat="45.182" lon="0.90764">
        <ele>210.4</ele>
      </trkpt>
    </trkseg>
  </trk>
</gpx>